Regional Weather Roundup
Issued by NWS

Home | Current Version | Previous Version | Graphics & Text | Print | Product List | Glossary On
Versions: 1 2 3 4 5 6 7 8 9 10 11 12 13 14 15 16 17 18 19 20 21 22 23 24 25 26 27 28 29 30 31 32 33 34 35 36 37 38 39 40 41 42 43 44 45 46 47 48 49 50
000
ASUS43 KFSD 230010
RWRSD

WEATHER ROUNDUP FOR SOUTH DAKOTA
NATIONAL WEATHER SERVICE SIOUX FALLS SD
700 PM CDT FRI JUL 22 2016

NOTE: "FAIR" INDICATES FEW OR NO CLOUDS BELOW 12,000 FEET WITH NO
SIGNIFICANT WEATHER AND/OR OBSTRUCTIONS TO VISIBILITY.


SDZ001>005-009-010-012>017-230100-
NORTHWEST AND NORTH CENTRAL SOUTH DAKOTA

CITY           SKY/WX    TMP DP  RH WIND       PRES   REMARKS
BUFFALO          N/A     83  56  39 VRB3      29.85F
FAITH            N/A     99  48  17 S28G38    29.89R HX  95
MOBRIDGE       LGT RAIN  79  63  57 E13G28    29.90R
$$

SDZ012>016-024>037-041>051-057-063-072>074-230100-
SOUTHWEST AND SOUTH CENTRAL SOUTH DAKOTA

CITY           SKY/WX    TMP DP  RH WIND       PRES   REMARKS
RAPID CTY ARPT CLOUDY    87  54  32 S16       29.93S
PIERRE         MOSUNNY   88  68  51 SE21      29.88F
CUSTER         CLOUDY    77  49  37 S12G25    30.14F
ELLSWORTH AFB  MOSUNNY   89  53  28 S23       29.92F
PHILIP         CLOUDY    95  61  32 S15       29.89R HX  95
PINE RIDGE     LGT RAIN  74  67  78 S7        30.03F
WINNER         FAIR      94  73  50 E16G24    29.93F HX 103
$$

SDZ004>011-016>023-039-040-230100-
NORTHEAST SOUTH DAKOTA

CITY           SKY/WX    TMP DP  RH WIND       PRES   REMARKS
ABERDEEN       SUNNY     86  72  62 SE3       29.91F
WATERTOWN      CLOUDY    85  68  56 SE14      29.92F
BROOKINGS      PTSUNNY   85  75  72 E12       29.98F
SISSETON         N/A     85  70  60 E12       29.91F
$$

SDZ017-020-022-023-036>040-048>070-230100-
SOUTHEAST SOUTH DAKOTA

CITY           SKY/WX    TMP DP  RH WIND       PRES   REMARKS
SIOUX FALLS    PTSUNNY   88  78  72 E15       29.96S HX 101
HURON          CLOUDY    88  74  63 SE12      29.92F HX  96
CHAMBERLAIN    MOSUNNY   90  68  48 E13G25    29.93S
MITCHELL       MOSUNNY   89  77  67 E10       29.94S HX 101
YANKTON        MOSUNNY   90  79  70 E7        29.90R HX 105
$$

ABBREVIATIONS USED IN REMARKS
   TC - TEMPERATURE IN CELSIUS
  WCI - WIND CHILL INDEX
   HX - HEAT INDEX
  VSB - VISIBILITY





USA.gov is the U.S. government's official web portal to all federal, state and local government web resources and services.